Preview of NWS' New Version of Forecast
This preview is not operational and should not be used for support decisions.
Latest weather observations around

Boston, Logan International Airport (KBOS)

Using English Units (Switch to International System of Units)
Date/ Time (EST) Wind (mph) Vis. (mi) Weather Sky Cond. Temp (°F) Rel. Humidity Wind Chill (°F) Heat Index (°F) Pressure Precip. (in)
Air Dwpt 6 hour Altimeter (inHg) Sea level (inHg) 1 hr 3 hr 6 hr
Max Min
Dec 17 14:54 W 11 10 Mostly Cloudy FEW025 SCT042 BKN200 42 32     67% 36   29.52 29.52      
Dec 17 14:20 W 13 10 Cloudy FEW024 OVC040 42 32     67% 35   29.52        
Dec 17 13:54 WNW 18 10 Cloudy SCT017 BKN023 OVC035 42 33     70% 34   29.53 29.52      
Dec 17 13:19 W 10 10 Mostly Cloudy BKN019 BKN025 BKN035 42 34     73% 36   29.54        
Dec 17 12:54 WNW 11 10 Mostly Cloudy BKN014 BKN027 41 35     79% 34   29.54 29.54     0
Dec 17 11:54 WNW 14 10 Cloudy OVC011 39 34     82% 31   29.57 29.57      
Dec 17 10:54 NW 13 10 Cloudy OVC011 38 33     82% 30   29.59 29.58      
Dec 17 10:12 NNW 11 10 Cloudy OVC010 38 33     82% 30   29.62        
Dec 17 09:54 NNW 10 10 Cloudy OVC009 37 33     85% 30   29.63 29.63 0 0  
Dec 17 08:54 NW 11 10 Cloudy OVC009 37 33     85% 29   29.65 29.65      
Dec 17 07:54 NW 14 10 Cloudy OVC009 37 33     85% 28   29.65 29.65 0    
Dec 17 07:33 NNW 11 10 Cloudy OVC009 37 33     85% 29   29.65   0    
Dec 17 06:54 NNW 13 9 Light Snow SCT008 OVC012 36 33     89% 27   29.65 29.65 0   0
Dec 17 06:44 NNW 13 6 Light Snow and Fog/Mist SCT008 OVC015 36 33     89% 27   29.65   0    
Dec 17 05:54 NNW 13 8   BKN009 OVC014 36 33     89% 27   29.66 29.66 0    
Dec 17 05:28 NNW 15 6 Light Rain and Fog/Mist SCT006 BKN011 OVC020 36 33     89% 27   29.66   0    
Dec 17 04:54 NNW 14 4 Light Rain and Fog/Mist SCT006 OVC009 36 33     89% 27   29.66 29.66 0    
Dec 17 04:44 N 15 3 Light Rain and Fog/Mist BKN006 OVC011 36 33     89% 27   29.66   0    
Dec 17 04:04 NNW 15 3 Light Rain and Fog/Mist OVC008 37 34     89% 28   29.68   0    
Dec 17 03:54 NNW 14 2.5 Light Rain and Fog/Mist OVC008 37 34     89% 28   29.68 29.67 0 0  
Dec 17 03:49 N 14 2.5 Unknown Precipitation and Fog/Mist OVC008 37 34     87% 29   29.68   0    
Dec 17 03:28 NNW 14 3 Light Rain and Fog/Mist OVC009 38 35     89% 30   29.68   0    
Dec 17 02:54 N 17 2.5 Light Rain and Fog/Mist OVC008 40 37     89% 31   29.68 29.67 0    
Dec 17 01:54 NNE 20 2.5 Light Rain and Fog/Mist OVC008 41 37     86% 32   29.69 29.69 0    
Dec 17 01:40   2.5 Light Rain and Fog/Mist OVC008 41 38     89%     29.69   0    
Dec 17 00:54   4 Light Rain and Fog/Mist BKN010 OVC028 41 37     86%     29.71 29.7 0   0
Dec 17 00:52   4 Light Rain and Fog/Mist SCT008 BKN012 OVC026 41 37     87%     29.71   0    
Dec 16 23:54   5 Light Rain and Fog/Mist BKN009 OVC032 41 38     89%     29.75 29.75 0    
Dec 16 22:54   3 Light Rain and Fog/Mist BKN009 OVC016 41 38     89%     29.78 29.78 0    
Dec 16 22:47   4 Light Rain and Fog/Mist BKN008 OVC013 41 38     89%     29.78   0    
Dec 16 22:06   2.5 Light Rain and Fog/Mist OVC009 41 38     89%     29.8   0    
Dec 16 21:54   3 Light Rain and Fog/Mist SCT007 OVC008 41 38     89%     29.81 29.8 0 0  
Dec 16 21:30   4 Light Rain and Fog/Mist BKN007 BKN012 OVC039 42 38     85%         0    
Dec 16 21:18   4 Light Rain and Fog/Mist SCT007 BKN012 OVC041 42 38     85%     29.82   0    
Dec 16 21:08   4 Light Rain and Fog/Mist FEW007 BKN020 OVC041 42 38     85%     29.83   0    
Dec 16 21:03 NE 18 4 Light Rain and Fog/Mist SCT009 BKN014 OVC043 42 38     85% 34   29.83   0    
Dec 16 20:54   4 Light Rain and Fog/Mist SCT009 BKN019 OVC038 42 38     85%     29.83 29.83 0    
Dec 16 20:29   3 Rain and Fog/Mist SCT009 BKN023 OVC033 42 38     85%     29.86   0    
Dec 16 20:13   3 Rain and Fog/Mist SCT010 BKN019 OVC030 42 39     89%     29.87   0    
Dec 16 20:02   2.5 Heavy Rain and Fog/Mist SCT010 BKN019 OVC028 42 39     89%     29.87   0    
Dec 16 19:54   3 Rain and Fog/Mist BKN011 BKN021 OVC030 42 39     89%     29.88 29.88 0    
Dec 16 19:44   3 Rain and Fog/Mist SCT011 BKN018 OVC030 42 39     89%     29.88   0    
Dec 16 19:33   2.5 Heavy Rain and Fog/Mist SCT011 BKN023 OVC030 42 39     89%     29.88   0    
Dec 16 19:25 NE 18 4 Rain and Fog/Mist SCT014 BKN030 OVC037 42 38     85% 34   29.89   0    
Dec 16 18:54 NE 18 3 Rain SCT014 BKN023 OVC042 43 38     82% 35   29.9 29.9 0   0
Dec 16 18:27 ENE 18 4 Clear   43 38     82% 35   29.91        
Dec 16 18:06   5 Rain SCT019 BKN026 OVC070 43 37     79%     29.92   0    
Dec 16 17:54 ENE 18 6 Rain SCT021 BKN045 OVC075 43 37     79% 35   29.92 29.92 0    
Dec 16 16:54 ENE 17 10 Light Rain SCT027 SCT065 OVC095 44 36     73% 36   29.94 29.93 0    
Dec 16 15:54 NE 17 10 Cloudy SCT020 BKN060 OVC100 44 35     70% 36   29.95 29.94   0  
Dec 16 14:54 ENE 16 10 Cloudy SCT023 OVC095 44 35     70% 37   29.97 29.96 0    
Dec 16 13:54   10 Light Rain FEW023 OVC090 44 35     70%     30 30 0    
Dec 16 12:54 E 17 10 Cloudy SCT021 OVC090 44 35     70% 36   30.03 30.03 0   0
Dec 16 11:54   7 Light Rain FEW021 FEW060 OVC090 44 36     73%     30.06 30.06 0    
Dec 16 10:54 E 20 10 Cloudy and Windy SCT025 BKN030 OVC090 44 35     70% 36   30.12 30.12      
Dec 16 10:25 E 16 10 Cloudy OVC029 45 34     65% 38   30.15        
Dec 16 09:54 E 16 10 Cloudy BKN030 OVC120 45 34     65% 38   30.17 30.17      
Dec 16 09:50 E 18 10 Cloudy BKN030 OVC120 45 34     66% 37   30.18        
Dec 16 08:54 E 20 10 Cloudy and Windy BKN029 OVC200 45 34     65% 37   30.19 30.19      
Dec 16 08:52 E 20 10 Cloudy and Windy BKN029 OVC200 45 34     66% 37   30.19        
Dec 16 05:54 ENE 16 10 Cloudy OVC028 44 33     65% 37   30.2 30.19      
Dec 16 04:54 NE 10 10 Cloudy OVC030 43 33     68% 37   30.21 30.2      
Dec 16 03:54   10 Clear   43 32     65%     30.18 30.18      
Dec 16 02:54 NE 18 10 Cloudy BKN031 OVC250 43 31     62% 35   30.21 30.21      
Dec 16 01:54   10 Cloudy FEW031 OVC250 43 31     62%     30.22 30.22      
Dec 16 00:54 NE 14 10 Cloudy FEW070 OVC240 42 32     67% 35   30.21 30.2      
Dec 15 23:54 NNE 9 10 Cloudy SCT220 OVC250 41 32     70% 35   30.25 30.24      
Dec 15 22:54 NNE 7 10 Cloudy FEW210 OVC250 41 32     70% 36   30.26 30.25      
Dec 15 21:54 NNE 8 10 Mostly Cloudy BKN230 41 31     67% 36   30.25 30.25      
Dec 15 20:54 NNE 7 10 Clear   42 33     70% 38   30.25 30.25      
Dec 15 19:54 NNE 8 10 Cloudy FEW180 OVC210 45 32     60% 41   30.24 30.23      
Dec 15 18:54 NNE 11 10 Cloudy FEW180 OVC220 45 35     68% 39   30.19 30.18      
Dec 15 17:54 ENE 13 10 Cloudy OVC210 46 37     71% 40   30.2 30.19      
Dec 15 16:54 NNE 8 10 Cloudy OVC210 49 36     61% 45   30.18 30.17      
Dec 15 15:54 N 10 10 Cloudy OVC200 51 36     56%     30.16 30.15      
Dec 15 14:54 N 6 10 Cloudy FEW060 BKN200 OVC250 53 38     56%     30.14 30.14      
Dec 15 13:54 3 10 Cloudy FEW060 SCT080 OVC200 55 42     62%     30.13 30.13      
Dec 15 11:54 W 7 10 Mostly Cloudy FEW060 SCT080 BKN250 53 44     71%     30.14 30.14      
Dec 15 09:54 SW 9 10 Mostly Cloudy FEW025 SCT060 BKN080 51 46     83%     30.19 30.19      
Dec 15 08:54 WSW 8 10 Cloudy FEW026 OVC055 50 46     86%     30.19 30.19      
Dec 15 05:54 SW 13 7 Cloudy FEW020 OVC039 49 44     83% 44   30.16 30.16      
Dec 15 04:54 SW 10 10 Cloudy OVC041 49 43     80% 45   30.15 30.15      
Dec 15 03:54 SW 10 10 Cloudy OVC044 48 44     86% 43   30.16 30.16      
Dec 15 02:54 SW 10 10 Mostly Cloudy BKN050 48 44     86% 43   30.18 30.17      
Dec 15 02:12 SW 11 10 Mostly Cloudy FEW009 BKN070 48 44     86% 43   30.18        
Dec 15 01:54 SW 15 10 Cloudy SCT010 OVC065 48 44     86% 42   30.18 30.18      
Dec 15 01:40 SSW 15 10 Cloudy SCT008 SCT012 OVC065 48 44     86% 42   30.18        
Dec 15 00:54 SSW 14 8 Cloudy BKN008 OVC070 47 43     86% 41   30.2 30.19      
Dec 15 00:50 SSW 14 8 Cloudy BKN009 BKN070 OVC090 46 43     87% 40   30.2        
Dec 15 00:25 SSW 14 7 Cloudy SCT005 BKN065 OVC085 46 43     89% 40   30.2        
Dec 14 23:54 SSW 13 6 Fog/Mist OVC006 45 42     90% 39   30.21 30.2      
Dec 14 22:54 SW 11 8 Cloudy OVC007 45 42     90% 39   30.25 30.24      
Dec 14 21:54 SSW 11 10 Cloudy BKN008 OVC055 44 40     85% 38   30.26 30.26      
Dec 14 20:54 SSW 7 10 Cloudy OVC007 43 39     86% 39   30.29 30.29      
Dec 14 20:10 S 8 10 Cloudy BKN009 OVC080 42 37     82% 37   30.3        
Dec 14 19:54 S 7 10 Cloudy FEW009 SCT023 OVC080 42 37     82% 38   30.32 30.32      
Dec 14 18:54 S 5 10 Cloudy SCT029 BKN060 OVC160 42 36     79% 39   30.34 30.34      
Dec 14 17:54 S 7 10 Cloudy SCT025 BKN060 OVC160 44 36     73% 40   30.38 30.38      
Dec 14 16:54 S 6 10 Cloudy BKN060 BKN160 OVC250 44 32     62% 41   30.38 30.38      
Dec 14 15:54 SSE 3 10 Cloudy BKN060 BKN160 OVC250 42 35     76% 40   30.39 30.39      
Dec 14 14:54 E 6 10 Mostly Cloudy FEW065 SCT160 BKN250 42 32     67% 38   30.4 30.39      
Dec 14 13:54 E 8 10 Mostly Cloudy SCT065 BKN160 BKN250 43 32     65% 38   30.41 30.4      
Dec 14 12:54 E 8 10 Mostly Cloudy FEW160 BKN250 44 28     53% 40   30.43 30.43      
Dec 14 11:54 ESE 5 10 Mostly Cloudy BKN250 42 29     59% 39   30.46 30.46      
Dec 14 10:54 SSE 3 10 Mostly Cloudy BKN250 41 30     65% 39   30.51 30.51      
Dec 14 09:54 S 3 10 Mostly Clear FEW060 FEW250 39 29     67% 37   30.54 30.54      
Dec 14 08:54 Calm 10 Mostly Clear FEW250 36 28     73%     30.55 30.55      
Dec 14 07:54 S 3 10 Mostly Clear FEW250 32 26     78% 29   30.53 30.53      
Dec 14 06:54 SSW 6 10 Mostly Clear FEW060 FEW250 31 25     78% 25   30.53 30.53      
Dec 14 05:54 S 6 10 Mostly Clear FEW055 30 25     81% 24   30.53 30.53      
Dec 14 04:54 S 7 10 Mostly Clear FEW055 31 26     82% 24   30.53 30.52      
Dec 14 03:54 S 5 10 Partly Cloudy SCT055 30 24     78% 25   30.54 30.53      
Dec 14 01:54 SSW 3 10 Cloudy OVC055 34 25     69% 31   30.58 30.58      
Dec 14 00:54 SSW 5 10 Partly Cloudy SCT060 34 24     67% 30   30.57 30.57      
Dec 13 23:54 Calm 10 Mostly Cloudy BKN060 34 23     64%     30.56 30.56      
Dec 13 22:54 S 3 10 Mostly Cloudy BKN065 34 23     64% 31   30.56 30.56      
Dec 13 21:54 S 5 10 Cloudy OVC065 34 23     64% 30   30.57 30.56      
Dec 13 20:54 SSE 6 10 Cloudy SCT045 BKN070 OVC200 34 23     64% 29   30.57 30.57      
Dec 13 19:54 SE 6 10 Cloudy BKN065 OVC200 34 23     64% 29   30.57 30.56      
Dec 13 18:54 SSE 7 10 Cloudy BKN075 OVC200 34 21     59% 28   30.57 30.56      
Dec 13 17:54 SSE 7 10 Cloudy BKN055 OVC200 34 21     59% 28   30.56 30.56      
Dec 13 16:54 SE 6 10 Cloudy BKN050 BKN110 OVC200 34 20     56% 29   30.55 30.55      
Dec 13 15:54 ESE 6 10 Cloudy FEW033 BKN100 OVC200 34 21     59% 29   30.54 30.54      
Dec 13 14:54 E 5 10 Cloudy FEW030 BKN110 OVC200 34 21     59% 30   30.53 30.53      
Dec 13 13:54 E 5 10 Mostly Cloudy FEW030 BKN130 BKN200 34 20     56% 30   30.53 30.52      
Dec 13 12:54 NNE 5 10 Mostly Cloudy FEW030 BKN140 BKN200 35 19     52% 31   30.53 30.52      
Dec 13 11:54 Calm 10 Mostly Cloudy FEW028 FEW050 BKN140 32 17     54%     30.53 30.53      
Dec 13 10:54 Calm 10 Mostly Cloudy FEW050 SCT120 BKN200 31 16     53%     30.53 30.53      
Dec 13 09:54 5 10 Mostly Cloudy FEW040 SCT110 BKN200 29 14     53% 24   30.54 30.53      
Dec 13 08:54 N 7 10 Mostly Cloudy FEW040 FEW140 SCT200 BKN250 25 12     57% 17   30.52 30.52      
Dec 13 07:54 NNW 10 10 Mostly Cloudy FEW040 FEW200 BKN250 22 10     60% 11   30.51 30.51      
Dec 13 06:54 N 8 10 Mostly Cloudy FEW040 SCT200 BKN250 21 9     59% 11   30.48 30.48      
Dec 13 05:54 N 10 10 Cloudy FEW035 BKN200 OVC250 21 8     57% 10   30.46 30.46      
Dec 13 04:54 NNW 9 10 Cloudy FEW035 BKN200 OVC250 21 7     54% 11   30.45 30.44      
Dec 13 03:54 NNW 9 10 Mostly Cloudy FEW150 BKN250 21 7     54% 11   30.43 30.42      
Dec 13 02:54 N 11 10 Mostly Cloudy BKN250 21 6     52% 9   30.41 30.41      
Dec 13 01:54 N 10 10 Mostly Cloudy BKN250 22 5     48% 11   30.39 30.39      
Dec 13 00:54 NNW 7 10 Partly Cloudy SCT250 23        % 15   30.37 30.37      
Dec 12 23:54 NNW 6 10 Partly Cloudy SCT250 24 4     41% 17   30.36 30.35      
Dec 12 22:54 NNW 9 10 Mostly Clear FEW250 25 4     40% 16   30.34 30.34      
Dec 12 21:54 NNW 7 10 Partly Cloudy FEW200 SCT250 26 3     37% 18   30.32 30.32      
Dec 12 20:54 N 13 10 Partly Cloudy SCT200 27 4     37% 16   30.28 30.27      
Dec 12 19:54 N 14 10 Mostly Clear FEW250 29 5     36% 18   30.25 30.25      
Dec 12 18:54 NNW 14 10 Partly Cloudy SCT250 30 6     36% 19   30.24 30.24      
Dec 12 17:54 NW 15 10 Mostly Clear FEW250 32 7     34% 22   30.19 30.19      
Dec 12 16:54 NW 14 10 Mostly Clear FEW160 FEW250 33 7     33% 23   30.16 30.15      
Dec 12 15:54 NW 17 10 Partly Cloudy FEW050 SCT160 36 10     34% 26   30.11 30.11      
Dec 12 14:54 NW 15 10 Mostly Clear FEW055 38 11     32% 29   30.07 30.07      
Dec 12 13:54 NW 17 10 Mostly Clear FEW050 38 10     31% 29   30.05 30.05      
Dec 12 12:54 NW 16 10 Mostly Clear FEW050 38 10     31% 29   30.04 30.04      
Dec 12 11:54   10 Mostly Clear FEW050 38 14     37%     30.03 30.02      
Dec 12 09:54 NW 14 10 Mostly Clear FEW080 36 18     48% 27   30.02 30.01      
Dec 12 08:54 NW 10 10 Mostly Cloudy FEW045 FEW060 BKN075 32 18     56% 24   30.01 30      
Dec 12 07:54 WNW 9 10 Mostly Cloudy FEW045 BKN080 31 16     53% 23   29.99 29.98      
Dec 12 06:54 NW 9 10 Mostly Cloudy FEW045 BKN080 30 16     55% 22   29.97 29.96      
Dec 12 05:54 NNW 9 10 Mostly Cloudy BKN090 29 15     56% 20   29.94 29.94      
Dec 12 04:54 NW 10 10 Mostly Cloudy BKN110 29 16     58% 20   29.92 29.92      
Dec 12 03:54 NW 13 10 Clear CLR 30 16     55% 20   29.9 29.9      
Dec 12 02:54 WNW 10 10 Cloudy BKN049 OVC055 32 16     51% 24   29.9 29.89      
Dec 12 01:54 NW 7 10 Cloudy BKN044 OVC055 32 16     51% 26   29.9 29.89      
Dec 12 00:54 NNW 8 10 Cloudy OVC050 32 15     49% 25   29.89 29.89      
Dec 11 23:54 NNW 7 10 Cloudy OVC048 33 16     49% 27   29.9 29.89      
Dec 11 22:54 NNW 7 10 Cloudy OVC049 33 16     49% 27   29.92 29.92      
Dec 11 21:54 NNW 6 10 Cloudy BKN045 OVC140 35 16     45% 30   29.93 29.93      
Dec 11 20:54 NW 8 10 Cloudy BKN045 OVC140 35 17     47% 29   29.96 29.95      
Dec 11 19:54 WNW 6 10 Partly Cloudy SCT047 SCT140 35 20     54% 30   29.96 29.96      
Dec 11 18:54 SW 7 10 Partly Cloudy FEW060 SCT140 34 18     51% 28   29.97 29.97      
Dec 11 17:54 SSW 9 10 Mostly Clear FEW065 FEW140 33 20     58% 25   29.98 29.98      
Dec 11 16:54 SSW 7 10 Mostly Clear FEW045 FEW140 34 17     50% 28   29.98 29.98      
Dec 11 15:54 SSW 7 10 Mostly Clear FEW045 FEW140 35 16     45% 29   29.99 29.99      
Dec 11 14:54 SW 8 10 Mostly Clear FEW045 FEW200 38 15     39% 32   30.01 30.01      
Dec 11 13:54 SW 9 10 Mostly Clear FEW050 FEW200 38 14     37% 31   30.02 30.01      
Dec 11 12:54 ESE 5 10 Mostly Clear FEW050 FEW200 36 15     42% 32   30.06 30.05      
Dec 11 11:54 S 3 10 Mostly Clear FEW050 FEW200 34 16     47% 31   30.1 30.09      
Dec 11 10:54 SSE 5 10 Mostly Clear FEW050 FEW200 33 14     45% 29   30.12 30.12      
Dec 11 09:54 NW 5 10 Mostly Clear FEW050 FEW200 32 11     41% 27   30.16 30.15      
Dec 11 08:54 N 3 9 Mostly Clear FEW050 FEW200 29 10     45% 25   30.19 30.19      
Dec 11 07:54 NW 6 10 Mostly Clear FEW050 FEW110 25 10     53% 18   30.2 30.19      
Dec 11 06:54 NW 7 10 Mostly Clear FEW050 FEW100 24 10     55% 16   30.2 30.2      
Dec 10 21:54 N 7 10 Clear CLR 29 10     45% 22   30.18 30.18      
Dec 10 20:54 N 6 10 Clear CLR 29 12     49% 23   30.18 30.17      
Dec 10 19:54 NNE 6 10 Clear CLR 29 12     49% 23   30.17 30.16      
Dec 10 18:54 N 8 10 Clear CLR 31 12     45% 23   30.15 30.15      
Dec 10 17:54 N 7 10 Clear CLR 32 12     43% 26   30.14 30.13      
Dec 10 16:54 N 7 10 Mostly Clear FEW045 35 12     38% 29   30.12 30.12      
Dec 10 15:54 NW 11 10 Mostly Clear FEW045 37 11     34% 29   30.11 30.11      
Dec 10 14:54 NNW 9 10 Mostly Clear FEW045 38 13     35% 31   30.1 30.09      
Dec 10 13:54 NNW 6 10 Mostly Clear FEW060 FEW110 39 15     37% 35   30.08 30.08      
Dec 10 12:54 N 8 10 Mostly Clear FEW060 FEW110 39 14     36% 33   30.08 30.08      
Dec 10 11:54 N 8 10 Mostly Clear FEW060 38 16     40% 32   30.08 30.08      
Dec 10 10:54 NNW 10 10 Mostly Clear FEW060 37 16     42% 30   30.11 30.1      
Dec 10 09:54 N 13 10 Mostly Clear FEW060 35 17     47% 26   30.12 30.11      
Dec 10 08:54 NNW 11 10 Mostly Clear FEW050 34 17     50% 26   30.1 30.1      
Dec 10 07:54 NNW 11 10 Mostly Clear FEW050 31 17     56% 22   30.08 30.08      
Dec 10 06:54 NW 11 10 Mostly Clear FEW050 FEW250 30 17     58% 21   30.08 30.08      
Dec 10 05:54 NW 11 10 Mostly Clear FEW250 30 17     58% 21   30.07 30.06      
Dec 10 04:54 WNW 10 10 Clear CLR 30 16     55% 21   30.06 30.06      
Dec 10 03:54 WNW 9 10 Mostly Clear FEW250 30 16     55% 22   30.07 30.07      
Dec 10 02:54 WNW 9 10 Partly Cloudy SCT220 SCT250 30 15     53% 22   30.08 30.08      
Dec 10 01:54 WNW 9 10 Cloudy OVC220 30 15     53% 22   30.09 30.09      
Dec 10 00:54 W 9 10 Mostly Cloudy FEW220 BKN250 30 15     53% 22   30.1 30.1      
Dec 09 23:54 W 8 10 Mostly Cloudy SCT220 BKN250 31 15     51% 23   30.14 30.14      
Dec 09 22:54 W 8 10 Mostly Cloudy SCT220 BKN250 32 15     49% 25   30.15 30.14      
Dec 09 21:54 WSW 11 10 Mostly Cloudy SCT220 BKN250 32 15     49% 23   30.14 30.14      
Dec 09 20:54 SW 11 10 Cloudy BKN220 OVC250 31 16     53% 22   30.16 30.15      
Dec 09 19:54 WSW 11 10 Mostly Cloudy BKN220 BKN250 32 16     51% 23   30.17 30.16      
Dec 09 18:54 SW 11 10 Cloudy BKN220 OVC250 32 17     54% 23   30.18 30.18      
Dec 09 17:54 SW 10 10 Cloudy BKN220 OVC250 32 17     54% 24   30.2 30.19      
Dec 09 16:54 SW 13 10 Mostly Cloudy SCT220 BKN250 33 17     51% 24   30.22 30.22      
Dec 09 15:54 SW 13 10 Mostly Cloudy SCT220 BKN250 34 18     51% 25   30.24 30.23      
Dec 09 14:54 WSW 10 10 Cloudy FEW035 BKN220 OVC250 36 17     46% 29   30.26 30.26      
Dec 09 13:54 WSW 11 10 Partly Cloudy FEW030 SCT250 37 17     44% 29   30.28 30.28      
Dec 09 12:54 WSW 13 10 Partly Cloudy FEW030 SCT250 37 16     42% 29   30.31 30.31      
Dec 09 10:54 WSW 10 10 Partly Cloudy FEW030 SCT250 33 17     51% 25   30.39 30.38      
Dec 09 09:54 6 10 Mostly Cloudy FEW030 SCT200 BKN250 30 16     55% 24   30.42 30.42      
Dec 09 07:54 WSW 6 10 Partly Cloudy FEW030 SCT250 26 15     63% 19   30.44 30.44      
Dec 09 06:54 WSW 8 10 Partly Cloudy FEW030 SCT250 24 15     68% 15   30.45 30.45      
Dec 09 05:54 W 7 10 Mostly Clear FEW250 25 15     66% 17   30.46 30.45      
Dec 09 04:54 W 7 10 Mostly Clear FEW250 26 14     60% 18   30.45 30.45      
Dec 09 03:54 WNW 7 10 Mostly Clear FEW250 25 14     63% 17   30.47 30.46      
Dec 09 02:54 W 9 10 Mostly Clear FEW250 26 14     60% 17   30.49 30.48      
Dec 09 01:54 W 8 10 Clear CLR 26 12     55% 18   30.49 30.48      
Dec 09 00:54 WSW 8 10 Mostly Clear FEW250 25 4     40% 16   30.48 30.47      
Dec 08 23:54 WNW 8 10 Mostly Clear FEW250 25 2     36% 16   30.48 30.48      
Dec 08 22:54 W 5 10 Mostly Clear FEW250 25 3     38% 19   30.47 30.46      
Dec 08 21:54 NW 7 10 Clear CLR 26 2     35% 18   30.49 30.48      
Dec 08 20:54 NW 9 10 Clear CLR 26 2     35% 17   30.49 30.48      
Dec 08 19:54 NW 7 10 Mostly Clear FEW060 27 1     32% 19   30.49 30.48      
Dec 08 18:54 NW 10 10 Mostly Clear FEW065 28 1     31% 19   30.47 30.46      
Dec 08 17:54 NW 10 10 Mostly Clear FEW065 28 0     29% 19   30.45 30.45      
Dec 08 16:54 WNW 11 10 Mostly Clear FEW075 29 -1     27% 19   30.42 30.42      
Dec 08 15:54 WNW 10 10 Mostly Clear FEW035 FEW075 29 -3     25% 20   30.4 30.4      
Dec 08 14:54 WNW 9 10 Mostly Clear FEW035 FEW075 FEW250 30 -4     22% 22   30.39 30.38      
Dec 08 13:54 NW 11 10 Mostly Clear FEW030 FEW250 30 -5     21% 21   30.38 30.38      
May 15 07:22   6 Fog/Mist BKN006 BKN250 59 57     93%     29.85        
May 14 06:51 S 7 10 Cloudy FEW009 BKN030 OVC037 52 48     87%     30.03        
May 13 12:54 ENE 8 10 Clear   52 47     83%     30.21 30.21      
Notice The following observation data may not be complete
May 13 09:08   7 Cloudy BKN010 BKN014 OVC026          %              
May 13 06:54 ENE 8 1.5 Fog/Mist OVC004 48 47     96% 44   30.18 30.18      
Notice The following observation data may not be complete
May 12 19:54   3 Fog/Mist BKN006 OVC012          %         0   0
May 12 15:54 NNE 7 3 Light Rain and Fog/Mist BKN013 OVC045 49 46     90% 46   30.12 30.11 0    
Notice The following observation data may not be complete
May 11 19:54 E 8 10 Mostly Cloudy FEW035 SCT170 BKN310   43      %     30.06 30.05      
May 11 17:54 NW 10 10 Mostly Cloudy FEW035 BKN170 BKN310 70 22     16%     30 30      
Jun 12 05:54 WSW 6 10 Mostly Clear FEW150 FEW250 72 63     73%   72 29.96 29.95      
Jun 10 18:54 S 14 10 Clear   78 55     45%   78 29.91 29.91      
Jun 09 12:54 SE 8 10 Mostly Cloudy FEW050 BKN140 BKN250 70        %     29.63 29.63      
Jun 09 00:54 NE 6 10 Cloudy OVC130 56 53     90%     29.81 29.81      
Jun 08 19:54 SE 9 10 Cloudy BKN130 OVC250 61        %     29.91 29.91      
Jun 08 08:54 SSE 6 10 Partly Cloudy SCT250 61 54     78%     30.05 30.04      
Jun 06 14:26   3 Light Rain and Fog/Mist SCT008 BKN012 OVC023 48 48     100%     29.85   0    
Jun 06 13:33 NNE 18 1.25 Rain and Fog/Mist SCT005 BKN010 OVC016 48 47     96% 41   29.86   0